OZ1IEP-5 Weather Reports


Display with metric or nautical units.
time (UTC)temp
F
wind
direction
speed
MPH
gust
MPH
rain 1hr
in
rain 24hr
in
rain mn
in
humidity
%
barometer
mb
20260831054006 57 143 3.0 6.0 0.00 0.24 0.00 94 1006.7
20260831053009 57 129 3.0 6.0 0.00 0.25 0.00 94 1006.7
20260831052005 57 139 2.0 5.0 0.00 0.27 0.00 94 1006.7
20260831051005 56 148 2.0 3.0 0.00 0.28 0.00 94 1006.7
20260831050008 56 152 2.0 5.0 0.00 0.28 0.00 93 1006.7
20260831045005 56 159 3.0 5.0 0.00 0.28 0.00 93 1006.9
20260831044005 56 150 3.0 5.0 0.00 0.28 0.00 93 1007.1
20260831043008 56 160 1.0 3.0 0.00 0.28 0.00 93 1007.0
20260831042006 56 182 0.0 0.0 0.00 0.28 0.00 93 1007.0
20260831041006 56 183 0.0 2.0 0.00 0.28 0.00 93 1007.1
20260831040009 56 184 0.0 1.0 0.00 0.28 0.00 93 1006.9
20260831035006 56 179 0.0 1.0 0.00 0.28 0.00 93 1006.9
20260831034006 56 181 0.0 2.0 0.00 0.28 0.00 93 1007.0
20260831033009 57 176 0.0 0.0 0.00 0.28 0.00 93 1007.0
20260831032006 57 183 0.0 0.0 0.00 0.28 0.00 93 1007.1
20260831031006 57 195 0.0 0.0 0.00 0.28 0.00 93 1007.2
20260831030012 57 172 0.0 1.0 0.00 0.28 0.00 93 1007.2
20260831025007 58 169 0.0 3.0 0.00 0.28 0.00 93 1007.3
20260831024006 58 172 0.0 1.0 0.00 0.28 0.00 93 1007.3
20260831023009 58 172 0.0 2.0 0.00 0.28 0.00 93 1007.2
20260831022006 58 188 0.0 0.0 0.00 0.28 0.00 93 1007.3
20260831021006 58 205 0.0 0.0 0.00 0.28 0.00 93 1007.3
20260831020009 58 171 0.0 1.0 0.00 0.28 0.00 93 1007.5
20260831015006 58 204 0.0 1.0 0.00 0.28 0.00 93 1007.5
20260831014006 58 179 0.0 0.0 0.00 0.28 0.00 93 1007.4
20260831013009 58 171 0.0 2.0 0.00 0.28 0.00 93 1007.5
20260831012006 58 179 0.0 1.0 0.00 0.28 0.00 93 1007.4
20260831011006 58 176 0.0 1.0 0.00 0.28 0.00 93 1007.5
20260831010010 58 170 0.0 3.0 0.00 0.28 0.00 92 1007.4
20260831005006 58 164 0.0 3.0 0.00 0.28 0.00 92 1007.5
20260831004006 58 175 0.0 0.0 0.00 0.28 0.00 92 1007.5
20260831003009 58 170 0.0 0.0 0.00 0.28 0.00 92 1007.4
20260831002006 58 173 0.0 0.0 0.00 0.28 0.00 92 1007.4
20260831001006 58 181 0.0 0.0 0.00 0.28 0.00 92 1007.5
20260831000009 59 176 0.0 0.0 0.00 0.28 0.00 91 1007.6
20260830235006 59 167 0.0 0.0 0.00 0.28 0.00 91 1007.3
20260830234006 59 170 0.0 0.0 0.00 0.28 0.00 91 1007.4
20260830233008 59 186 0.0 0.0 0.00 0.28 0.00 91 1007.3
20260830232006 59 201 0.0 0.0 0.00 0.28 0.00 91 1007.3
20260830231006 59 197 0.0 0.0 0.00 0.28 0.00 91 1007.3
20260830230008 59 181 0.0 0.0 0.00 0.28 0.00 91 1007.3
20260830225006 59 180 0.0 0.0 0.00 0.28 0.00 90 1007.4
20260830224007 59 203 0.0 0.0 0.00 0.28 0.00 89 1007.3
20260830223009 60 224 0.0 0.0 0.00 0.28 0.00 89 1007.3
20260830222006 60 224 0.0 2.0 0.00 0.28 0.00 89 1007.3
20260830221006 61 227 0.0 1.0 0.00 0.28 0.00 89 1007.4
20260830220009 61 223 0.0 0.0 0.00 0.28 0.00 89 1007.3
20260830215006 61 228 0.0 1.0 0.00 0.28 0.28 89 1007.3
20260830214006 62 205 0.0 3.0 0.00 0.28 0.28 89 1007.3
20260830213008 62 218 0.0 6.0 0.00 0.28 0.28 89 1007.3
20260830212006 62 219 0.0 2.0 0.00 0.28 0.28 89 1007.3
20260830211006 62 220 0.0 9.0 0.00 0.28 0.28 89 1007.2
20260830210009 62 221 0.0 6.0 0.00 0.28 0.28 89 1007.2
20260830205006 62 230 0.0 10.0 0.00 0.28 0.28 89 1007.2
20260830204006 62 221 1.0 10.0 0.00 0.28 0.28 90 1007.2
20260830203009 62 231 1.0 10.0 0.00 0.28 0.28 90 1007.2
20260830202006 62 224 0.0 6.0 0.00 0.28 0.28 90 1007.0
20260830201006 62 215 0.0 5.0 0.00 0.28 0.28 90 1007.0
20260830200009 62 219 0.0 7.0 0.00 0.28 0.28 90 1006.9
20260830195006 62 223 0.0 9.0 0.00 0.28 0.28 90 1006.8
20260830194005 62 223 1.0 12.0 0.00 0.28 0.28 90 1006.7
20260830193008 62 224 1.0 6.0 0.00 0.28 0.28 91 1006.7
20260830192006 62 221 1.0 5.0 0.00 0.28 0.28 91 1006.5
20260830191006 62 239 1.0 6.0 0.00 0.28 0.28 90 1006.2
20260830190018 62 236 0.0 2.0 0.00 0.28 0.28 90 1006.2
20260830185006 62 223 0.0 3.0 0.00 0.28 0.28 90 1006.1
20260830184006 62 251 0.0 2.0 0.00 0.28 0.28 90 1006.0
20260830183008 62 212 0.0 1.0 0.00 0.28 0.28 91 1005.7
20260830182005 63 227 0.0 1.0 0.00 0.28 0.28 91 1005.6
20260830181006 63 231 0.0 3.0 0.00 0.28 0.28 92 1005.6
20260830180007 63 233 0.0 2.0 0.00 0.28 0.28 92 1005.3
20260830175005 63 231 0.0 3.0 0.00 0.28 0.28 92 1005.1
20260830174005 63 203 0.0 1.0 0.00 0.28 0.28 92 1005.0
20260830173007 63 253 0.0 14.0 0.00 0.28 0.28 92 1004.7
20260830172006 63 284 0.0 9.0 0.00 0.28 0.28 91 1004.6
20260830171005 63 262 0.0 9.0 0.00 0.28 0.28 91 1004.5
20260830170007 63 261 0.0 6.0 0.00 0.28 0.28 92 1004.2
20260830165005 64 284 0.0 7.0 0.00 0.28 0.28 92 1004.0
20260830164006 64 239 0.0 5.0 0.00 0.28 0.28 92 1003.6
20260830163008 65 247 0.0 3.0 0.00 0.28 0.28 92 1003.5
20260830162005 65 301 0.0 2.0 0.00 0.28 0.28 92 1003.2
20260830161006 65 250 0.0 9.0 0.00 0.28 0.28 92 1003.0
20260830160009 65 240 0.0 7.0 0.00 0.28 0.28 92 1002.9
20260830155005 65 283 0.0 5.0 0.00 0.28 0.28 92 1002.7
20260830154006 66 224 0.0 3.0 0.00 0.28 0.28 92 1002.5
20260830153009 66 228 0.0 3.0 0.00 0.28 0.28 92 1002.2
20260830152006 66 237 0.0 2.0 0.00 0.29 0.28 92 1002.0
20260830151006 67 235 0.0 9.0 0.01 0.37 0.28 93 1001.9
20260830150008 67 262 0.0 3.0 0.06 0.40 0.28 93 1001.8
20260830145006 66 221 0.0 7.0 0.12 0.42 0.28 93 1001.7
20260830144006 67 233 0.0 3.0 0.16 0.42 0.28 93 1001.4
20260830143009 66 211 1.0 3.0 0.16 0.43 0.28 92 1001.4
20260830142006 66 210 0.0 6.0 0.16 0.43 0.28 92 1001.3
20260830141006 66 180 1.0 9.0 0.15 0.42 0.28 92 1001.3
20260830140009 66 210 0.0 2.0 0.09 0.36 0.22 92 1001.0
20260830135006 67 178 0.0 6.0 0.04 0.31 0.17 92 1000.9
20260830134006 67 168 1.0 7.0 0.00 0.27 0.13 92 1000.9
20260830133009 67 188 1.0 10.0 0.00 0.27 0.13 92 1000.9
20260830132006 67 170 1.0 10.0 0.00 0.27 0.13 93 1000.9
20260830131006 67 196 1.0 9.0 0.01 0.27 0.13 93 1000.8
20260830130009 66 183 1.0 7.0 0.01 0.27 0.13 93 1000.8
20260830125005 66 166 0.0 13.0 0.01 0.27 0.13 93 1000.8
20260830124006 65 190 3.0 13.0 0.01 0.27 0.13 93 1000.8
20260830123008 65 167 1.0 8.0 0.01 0.27 0.13 93 1000.7
20260830122006 65 170 3.0 12.0 0.01 0.27 0.13 93 1000.7
20260830121006 65 186 2.0 12.0 0.01 0.26 0.12 93 1000.8
20260830120008 65 171 2.0 13.0 0.01 0.26 0.12 93 1000.7
20260830115006 66 182 3.0 14.0 0.01 0.26 0.12 93 1000.6
20260830114006 66 173 3.0 12.0 0.01 0.26 0.12 93 1000.7
20260830113009 66 165 2.0 9.0 0.02 0.26 0.12 93 1000.5
20260830112006 65 187 1.0 9.0 0.03 0.26 0.12 93 1000.4
20260830111006 65 176 2.0 9.0 0.06 0.25 0.11 93 1000.5
20260830110008 65 174 1.0 9.0 0.06 0.25 0.11 93 1000.7
20260830105006 65 174 2.0 14.0 0.06 0.25 0.11 93 1000.7
20260830104006 65 170 3.0 17.0 0.06 0.25 0.11 93 1000.6
20260830103009 65 173 3.0 10.0 0.05 0.24 0.10 92 1000.7
20260830102005 65 168 1.0 10.0 0.03 0.23 0.09 92 1000.8
20260830101006 65 168 2.0 12.0 0.00 0.20 0.06 92 1000.9
20260830100008 65 154 3.0 14.0 0.00 0.20 0.06 92 1000.8
20260830095006 65 160 7.0 15.0 0.00 0.20 0.06 93 1000.8
20260830094005 65 164 7.0 14.0 0.00 0.20 0.06 93 1000.9
20260830093009 65 168 7.0 12.0 0.00 0.20 0.06 93 1000.9
20260830092006 64 180 6.0 14.0 0.01 0.20 0.06 93 1000.9
20260830091006 64 147 7.0 14.0 0.01 0.20 0.06 93 1000.9
20260830090009 64 165 7.0 13.0 0.01 0.20 0.06 93 1000.9
20260830085006 64 170 5.0 12.0 0.01 0.20 0.06 94 1000.9
20260830084006 64 145 4.0 13.0 0.01 0.20 0.06 93 1001.0
20260830083009 63 160 5.0 12.0 0.01 0.20 0.06 94 1001.1
20260830082007 63 156 6.0 13.0 0.00 0.19 0.05 94 1001.1
20260830081007 63 162 4.0 12.0 0.00 0.19 0.05 94 1001.2
20260830080009 63 150 7.0 12.0 0.00 0.19 0.05 93 1001.4
20260830075006 63 166 8.0 14.0 0.00 0.19 0.05 94 1001.4
20260830074007 63 145 6.0 13.0 0.00 0.19 0.05 93 1001.4
20260830073011 62 151 6.0 12.0 0.00 0.19 0.05 93 1001.4
20260830072007 62 149 6.0 10.0 0.00 0.19 0.05 94 1001.4
20260830071006 62 150 6.0 13.0 0.00 0.19 0.05 94 1001.5
20260830070010 62 157 7.0 12.0 0.00 0.19 0.05 94 1001.6
20260830065006 62 144 7.0 13.0 0.00 0.19 0.05 93 1001.6
20260830064006 62 148 6.0 13.0 0.00 0.19 0.05 93 1001.6
20260830063009 61 154 5.0 12.0 0.00 0.19 0.05 93 1001.6
20260830062007 61 153 6.0 13.0 0.02 0.19 0.05 93 1001.7
20260830061006 61 153 4.0 10.0 0.04 0.19 0.05 93 1001.7
20260830060008 61 141 7.0 12.0 0.04 0.19 0.05 93 1001.9
20260830055006 61 143 4.0 10.0 0.04 0.19 0.05 93 1001.9